Year,Month,Day,Hour,Minute,Value (Times are PST for temperature in C)
2015,05,27,00,00,14.20
2015,05,27,00,01,14.10
2015,05,27,00,02,14.10
2015,05,27,00,03,14.10
2015,05,27,00,04,14.10
2015,05,27,00,05,14.10
2015,05,27,00,06,14.10
2015,05,27,00,07,14.10
2015,05,27,00,08,14.10
2015,05,27,00,09,14.10
2015,05,27,00,10,14.00
2015,05,27,00,11,14.10
2015,05,27,00,12,14.10
2015,05,27,00,13,14.00
2015,05,27,00,14,14.00
2015,05,27,00,15,14.00
2015,05,27,00,16,14.00
2015,05,27,00,17,14.00
2015,05,27,00,18,13.90
2015,05,27,00,19,13.90
2015,05,27,00,20,13.90
2015,05,27,00,21,13.90
2015,05,27,00,22,13.80
2015,05,27,00,23,13.80
2015,05,27,00,24,13.80
2015,05,27,00,25,13.80
2015,05,27,00,26,13.80
2015,05,27,00,27,13.80
2015,05,27,00,28,13.70
2015,05,27,00,29,13.70
2015,05,27,00,30,13.70
2015,05,27,00,31,13.70
2015,05,27,00,32,13.60
2015,05,27,00,33,13.60
2015,05,27,00,34,13.60
2015,05,27,00,35,13.60
2015,05,27,00,36,13.50
2015,05,27,00,37,13.50
2015,05,27,00,38,13.40
2015,05,27,00,39,13.40
2015,05,27,00,40,13.30
2015,05,27,00,41,13.30
2015,05,27,00,42,13.30
2015,05,27,00,43,13.30
2015,05,27,00,44,13.20
2015,05,27,00,45,13.20
2015,05,27,00,46,13.20
2015,05,27,00,47,13.10
2015,05,27,00,48,13.10
2015,05,27,00,49,13.10
2015,05,27,00,50,13.00
2015,05,27,00,51,13.00
2015,05,27,00,52,13.00
2015,05,27,00,53,12.90
2015,05,27,00,54,12.90
2015,05,27,00,55,12.90
2015,05,27,00,56,12.80
2015,05,27,00,57,12.80
2015,05,27,00,58,12.80
2015,05,27,00,59,12.80
2015,05,27,01,00,12.80
2015,05,27,01,01,12.80
2015,05,27,01,02,12.80
2015,05,27,01,03,12.80
2015,05,27,01,04,12.80
2015,05,27,01,05,12.80
2015,05,27,01,06,12.80
2015,05,27,01,07,12.80
2015,05,27,01,08,12.80
2015,05,27,01,09,12.80
2015,05,27,01,10,12.80
2015,05,27,01,11,12.80
2015,05,27,01,12,12.80
2015,05,27,01,13,12.80
2015,05,27,01,14,12.80
2015,05,27,01,15,12.80
2015,05,27,01,16,12.80
2015,05,27,01,17,12.80
2015,05,27,01,18,12.80
2015,05,27,01,19,12.80
2015,05,27,01,20,12.80
2015,05,27,01,21,12.70
2015,05,27,01,22,12.70
2015,05,27,01,23,12.70
2015,05,27,01,24,12.70
2015,05,27,01,25,12.70
2015,05,27,01,26,12.70
2015,05,27,01,27,12.60
2015,05,27,01,28,12.60
2015,05,27,01,29,12.60
2015,05,27,01,30,12.50
2015,05,27,01,31,12.50
2015,05,27,01,32,12.50
2015,05,27,01,33,12.40
2015,05,27,01,34,12.40
2015,05,27,01,35,12.40
2015,05,27,01,36,12.40
2015,05,27,01,37,12.40
2015,05,27,01,38,12.40
2015,05,27,01,39,12.40
2015,05,27,01,40,12.40
2015,05,27,01,41,12.40
2015,05,27,01,42,12.40
2015,05,27,01,43,12.40
2015,05,27,01,44,12.40
2015,05,27,01,45,12.40
2015,05,27,01,46,12.40
2015,05,27,01,47,12.40
2015,05,27,01,48,12.40
2015,05,27,01,49,12.30
2015,05,27,01,50,12.30
2015,05,27,01,51,12.30
2015,05,27,01,52,12.30
2015,05,27,01,53,12.30
2015,05,27,01,54,12.30
2015,05,27,01,55,12.30
2015,05,27,01,56,12.30
2015,05,27,01,57,12.30
2015,05,27,01,58,12.30
2015,05,27,01,59,12.20
2015,05,27,02,00,12.20
2015,05,27,02,01,12.20
2015,05,27,02,02,12.20
2015,05,27,02,03,12.20
2015,05,27,02,04,12.20
2015,05,27,02,05,12.20
2015,05,27,02,06,12.20
2015,05,27,02,07,12.20
2015,05,27,02,08,12.20
2015,05,27,02,09,12.10
2015,05,27,02,10,12.10
2015,05,27,02,11,12.10
2015,05,27,02,12,12.10
2015,05,27,02,13,12.10
2015,05,27,02,14,12.10
2015,05,27,02,15,12.10
2015,05,27,02,16,12.00
2015,05,27,02,17,12.00
2015,05,27,02,18,12.00
2015,05,27,02,19,12.00
2015,05,27,02,20,11.90
2015,05,27,02,21,11.90
2015,05,27,02,22,11.90
2015,05,27,02,23,11.90
2015,05,27,02,24,11.90
2015,05,27,02,25,11.90
2015,05,27,02,26,11.90
2015,05,27,02,27,11.80
2015,05,27,02,28,11.80
2015,05,27,02,29,11.80
2015,05,27,02,30,11.80
2015,05,27,02,31,11.70
2015,05,27,02,32,11.70
2015,05,27,02,33,11.70
2015,05,27,02,34,11.70
2015,05,27,02,35,11.70
2015,05,27,02,36,11.70
2015,05,27,02,37,11.70
2015,05,27,02,38,11.70
2015,05,27,02,39,11.70
2015,05,27,02,40,11.70
2015,05,27,02,41,11.70
2015,05,27,02,42,11.70
2015,05,27,02,43,11.80
2015,05,27,02,44,11.80
2015,05,27,02,45,11.80
2015,05,27,02,46,11.80
2015,05,27,02,47,11.80
2015,05,27,02,48,11.80
2015,05,27,02,49,11.80
2015,05,27,02,50,11.80
2015,05,27,02,51,11.80
2015,05,27,02,52,11.80
2015,05,27,02,53,11.80
2015,05,27,02,54,11.70
2015,05,27,02,55,11.70
2015,05,27,02,56,11.70
2015,05,27,02,57,11.60
2015,05,27,02,58,11.60
2015,05,27,02,59,11.60
2015,05,27,03,00,11.60
2015,05,27,03,01,11.60
2015,05,27,03,02,11.60
2015,05,27,03,03,11.50
2015,05,27,03,04,11.50
2015,05,27,03,05,11.50
2015,05,27,03,06,11.50
2015,05,27,03,07,11.50
2015,05,27,03,08,11.50
2015,05,27,03,09,11.40
2015,05,27,03,10,11.40
2015,05,27,03,11,11.40
2015,05,27,03,12,11.50
2015,05,27,03,13,11.50
2015,05,27,03,14,11.50
2015,05,27,03,15,11.50
2015,05,27,03,16,11.50
2015,05,27,03,17,11.50
2015,05,27,03,18,11.50
2015,05,27,03,19,11.50
2015,05,27,03,20,11.50
2015,05,27,03,21,11.50
2015,05,27,03,22,11.50
2015,05,27,03,23,11.40
2015,05,27,03,24,11.40
2015,05,27,03,25,11.40
2015,05,27,03,26,11.40
2015,05,27,03,27,11.40
2015,05,27,03,28,11.40
2015,05,27,03,29,11.30
2015,05,27,03,30,11.30
2015,05,27,03,31,11.40
2015,05,27,03,32,11.40
2015,05,27,03,33,11.40
2015,05,27,03,34,11.40
2015,05,27,03,35,11.40
2015,05,27,03,36,11.40
2015,05,27,03,37,11.40
2015,05,27,03,38,11.40
2015,05,27,03,39,11.40
2015,05,27,03,40,11.40
2015,05,27,03,41,11.40
2015,05,27,03,42,11.40
2015,05,27,03,43,11.40
2015,05,27,03,44,11.40
2015,05,27,03,45,11.40
2015,05,27,03,46,11.40
2015,05,27,03,47,11.40
2015,05,27,03,48,11.30
2015,05,27,03,49,11.30
2015,05,27,03,50,11.30
2015,05,27,03,51,11.30
2015,05,27,03,52,11.30
2015,05,27,03,53,11.20
2015,05,27,03,54,11.20
2015,05,27,03,55,11.20
2015,05,27,03,56,11.20
2015,05,27,03,57,11.20
2015,05,27,03,58,11.20
2015,05,27,03,59,11.20
2015,05,27,04,00,11.20
2015,05,27,04,01,11.20
2015,05,27,04,02,11.20
2015,05,27,04,03,11.20
2015,05,27,04,04,11.10
2015,05,27,04,05,11.10
2015,05,27,04,06,11.10
2015,05,27,04,07,11.10
2015,05,27,04,08,11.10
2015,05,27,04,09,11.10
2015,05,27,04,10,11.10
2015,05,27,04,11,11.10
2015,05,27,04,12,11.10
2015,05,27,04,13,11.10
2015,05,27,04,14,11.10
2015,05,27,04,15,11.10
2015,05,27,04,16,11.10
2015,05,27,04,17,11.10
2015,05,27,04,18,11.00
2015,05,27,04,19,11.00
2015,05,27,04,20,10.90
2015,05,27,04,21,10.90
2015,05,27,04,22,10.90
2015,05,27,04,23,10.90
2015,05,27,04,24,10.80
2015,05,27,04,25,10.80
2015,05,27,04,26,10.80
2015,05,27,04,27,10.80
2015,05,27,04,28,10.80
2015,05,27,04,29,10.70
2015,05,27,04,30,10.70
2015,05,27,04,31,10.70
2015,05,27,04,32,10.70
2015,05,27,04,33,10.70
2015,05,27,04,34,10.70
2015,05,27,04,35,10.70
2015,05,27,04,36,10.70
2015,05,27,04,37,10.70
2015,05,27,04,38,10.70
2015,05,27,04,39,10.70
2015,05,27,04,40,10.70
2015,05,27,04,41,10.70
2015,05,27,04,42,10.80
2015,05,27,04,43,10.80
2015,05,27,04,44,10.80
2015,05,27,04,45,10.80
2015,05,27,04,46,10.80
2015,05,27,04,47,10.80
2015,05,27,04,48,10.80
2015,05,27,04,49,10.80
2015,05,27,04,50,10.80
2015,05,27,04,51,10.80
2015,05,27,04,52,10.80
2015,05,27,04,53,10.80
2015,05,27,04,54,10.80
2015,05,27,04,55,10.80
2015,05,27,04,56,10.80
2015,05,27,04,57,10.80
2015,05,27,04,58,10.90
2015,05,27,04,59,10.90
2015,05,27,05,00,10.90
2015,05,27,05,01,10.90
2015,05,27,05,02,10.90
2015,05,27,05,03,10.90
2015,05,27,05,04,10.80
2015,05,27,05,05,10.80
2015,05,27,05,06,10.80
2015,05,27,05,07,10.70
2015,05,27,05,08,10.70
2015,05,27,05,09,10.70
2015,05,27,05,10,10.70
2015,05,27,05,11,10.60
2015,05,27,05,12,10.60
2015,05,27,05,13,10.60
2015,05,27,05,14,10.60
2015,05,27,05,15,10.60
2015,05,27,05,16,10.60
2015,05,27,05,17,10.60
2015,05,27,05,18,10.60
2015,05,27,05,19,10.80
2015,05,27,05,20,10.90
2015,05,27,05,21,10.90
2015,05,27,05,22,10.90
2015,05,27,05,23,10.90
2015,05,27,05,24,10.90
2015,05,27,05,25,10.90
2015,05,27,05,26,10.90
2015,05,27,05,27,10.90
2015,05,27,05,28,10.90
2015,05,27,05,29,10.90
2015,05,27,05,30,10.90
2015,05,27,05,31,10.80
2015,05,27,05,32,10.80
2015,05,27,05,33,10.80
2015,05,27,05,34,10.80
2015,05,27,05,35,10.70
2015,05,27,05,36,10.70
2015,05,27,05,37,10.70
2015,05,27,05,38,10.60
2015,05,27,05,39,10.60
2015,05,27,05,40,10.60
2015,05,27,05,41,10.60
2015,05,27,05,42,10.60
2015,05,27,05,43,10.60
2015,05,27,05,44,10.50
2015,05,27,05,45,10.50
2015,05,27,05,46,10.50
2015,05,27,05,47,10.50
2015,05,27,05,48,10.50
2015,05,27,05,49,10.50
2015,05,27,05,50,10.50
2015,05,27,05,51,10.50
2015,05,27,05,52,10.40
2015,05,27,05,53,10.40
2015,05,27,05,54,10.40
2015,05,27,05,55,10.40
2015,05,27,05,56,10.40
2015,05,27,05,57,10.40
2015,05,27,05,58,10.40
2015,05,27,05,59,10.40
2015,05,27,06,00,10.40
2015,05,27,06,01,10.40
2015,05,27,06,02,10.40
2015,05,27,06,03,10.40
2015,05,27,06,04,10.40
2015,05,27,06,05,10.50
2015,05,27,06,06,10.50
2015,05,27,06,07,10.50
2015,05,27,06,08,10.50
2015,05,27,06,09,10.50
2015,05,27,06,10,10.50
2015,05,27,06,11,10.50
2015,05,27,06,12,10.50
2015,05,27,06,13,10.50
2015,05,27,06,14,10.50
2015,05,27,06,15,10.50
2015,05,27,06,16,10.50
2015,05,27,06,17,10.60
2015,05,27,06,18,10.60
2015,05,27,06,19,10.60
2015,05,27,06,20,10.60
2015,05,27,06,21,10.60
2015,05,27,06,22,10.60
2015,05,27,06,23,10.60
2015,05,27,06,24,10.60
2015,05,27,06,25,10.60
2015,05,27,06,26,10.60
2015,05,27,06,27,10.60
2015,05,27,06,28,10.70
2015,05,27,06,29,10.70
2015,05,27,06,30,10.70
2015,05,27,06,31,10.70
2015,05,27,06,32,10.80
2015,05,27,06,33,10.80
2015,05,27,06,34,10.90
2015,05,27,06,35,10.90
2015,05,27,06,36,11.00
2015,05,27,06,37,11.10
2015,05,27,06,38,11.20
2015,05,27,06,39,11.30
2015,05,27,06,40,11.40
2015,05,27,06,41,11.50
2015,05,27,06,42,11.50
2015,05,27,06,43,11.60
2015,05,27,06,44,11.70
2015,05,27,06,45,11.80
2015,05,27,06,46,11.80
2015,05,27,06,47,11.90
2015,05,27,06,48,12.00
2015,05,27,06,49,12.10
2015,05,27,06,50,12.10
2015,05,27,06,51,12.20
2015,05,27,06,52,12.30
2015,05,27,06,53,12.30
2015,05,27,06,54,12.30
2015,05,27,06,55,12.40
2015,05,27,06,56,12.50
2015,05,27,06,57,12.50
2015,05,27,06,58,12.60
2015,05,27,06,59,12.60
2015,05,27,07,00,12.70
2015,05,27,07,01,12.70
2015,05,27,07,02,12.80
2015,05,27,07,03,12.80
2015,05,27,07,04,12.80
2015,05,27,07,05,12.90
2015,05,27,07,06,13.00
2015,05,27,07,07,13.00
2015,05,27,07,08,13.10
2015,05,27,07,09,13.20
2015,05,27,07,10,13.20
2015,05,27,07,11,13.20
2015,05,27,07,12,13.30
2015,05,27,07,13,13.30
2015,05,27,07,14,13.40
2015,05,27,07,15,13.40
2015,05,27,07,16,13.50
2015,05,27,07,17,13.50
2015,05,27,07,18,13.60
2015,05,27,07,19,13.60
2015,05,27,07,20,13.70
2015,05,27,07,21,13.70
2015,05,27,07,22,13.80
2015,05,27,07,23,13.80
2015,05,27,07,24,13.90
2015,05,27,07,25,13.90
2015,05,27,07,26,14.00
2015,05,27,07,27,14.00
2015,05,27,07,28,14.10
2015,05,27,07,29,14.20
2015,05,27,07,30,14.20
2015,05,27,07,31,14.20
2015,05,27,07,32,14.30
2015,05,27,07,33,14.30
2015,05,27,07,34,14.30
2015,05,27,07,35,14.30
2015,05,27,07,36,14.30
2015,05,27,07,37,14.30
2015,05,27,07,38,14.40
2015,05,27,07,39,14.40
2015,05,27,07,40,14.40
2015,05,27,07,41,14.40
2015,05,27,07,42,14.40
2015,05,27,07,43,14.40
2015,05,27,07,44,14.40
2015,05,27,07,45,14.40
2015,05,27,07,46,14.40
2015,05,27,07,47,14.40
2015,05,27,07,48,14.40
2015,05,27,07,49,14.30
2015,05,27,07,50,14.30
2015,05,27,07,51,14.30
2015,05,27,07,52,14.30
2015,05,27,07,53,14.30
2015,05,27,07,54,14.30
2015,05,27,07,55,14.30
2015,05,27,07,56,14.30
2015,05,27,07,57,14.30
2015,05,27,07,58,14.30
2015,05,27,07,59,14.30
2015,05,27,08,00,14.30
2015,05,27,08,01,14.30
2015,05,27,08,02,14.20
2015,05,27,08,03,14.20
2015,05,27,08,04,14.20
2015,05,27,08,05,14.20
2015,05,27,08,06,14.20
2015,05,27,08,07,14.20
2015,05,27,08,08,14.30
2015,05,27,08,09,14.30
2015,05,27,08,10,14.30
2015,05,27,08,11,14.30
2015,05,27,08,12,14.20
2015,05,27,08,13,14.20
2015,05,27,08,14,14.20
2015,05,27,08,15,14.30
2015,05,27,08,16,14.30
2015,05,27,08,17,14.40
2015,05,27,08,18,14.40
2015,05,27,08,19,14.50
2015,05,27,08,20,14.60
2015,05,27,08,21,14.60
2015,05,27,08,22,14.60
2015,05,27,08,23,14.60
2015,05,27,08,24,14.60
2015,05,27,08,25,14.60
2015,05,27,08,26,14.60
2015,05,27,08,27,14.70
2015,05,27,08,28,14.70
2015,05,27,08,29,14.80
2015,05,27,08,30,14.80
2015,05,27,08,31,14.90
2015,05,27,08,32,14.90
2015,05,27,08,33,15.00
2015,05,27,08,34,15.00
2015,05,27,08,35,15.00
2015,05,27,08,36,15.10
2015,05,27,08,37,15.10
2015,05,27,08,38,15.10
2015,05,27,08,39,15.10
2015,05,27,08,40,15.20
2015,05,27,08,41,15.20
2015,05,27,08,42,15.20
2015,05,27,08,43,15.30
2015,05,27,08,44,15.30
2015,05,27,08,45,15.30
2015,05,27,08,46,15.30
2015,05,27,08,47,15.30
2015,05,27,08,48,15.40
2015,05,27,08,49,15.40
2015,05,27,08,50,15.40
2015,05,27,08,51,15.40
2015,05,27,08,52,15.50
2015,05,27,08,53,15.50
2015,05,27,08,54,15.50
2015,05,27,08,55,15.50
2015,05,27,08,56,15.60
2015,05,27,08,57,15.60
2015,05,27,08,58,15.70
2015,05,27,08,59,15.70
2015,05,27,09,00,15.70
2015,05,27,09,01,15.80
2015,05,27,09,02,15.80
2015,05,27,09,03,15.80
2015,05,27,09,04,15.80
2015,05,27,09,05,15.80
2015,05,27,09,06,15.90
2015,05,27,09,07,15.90
2015,05,27,09,08,16.00
2015,05,27,09,09,16.00
2015,05,27,09,10,16.10
2015,05,27,09,11,16.20
2015,05,27,09,12,16.30
2015,05,27,09,13,16.30
2015,05,27,09,14,16.30
2015,05,27,09,15,16.30
2015,05,27,09,16,16.30
2015,05,27,09,17,16.20
2015,05,27,09,18,16.20
2015,05,27,09,19,16.20
2015,05,27,09,20,16.20
2015,05,27,09,21,16.20
2015,05,27,09,22,16.20
2015,05,27,09,23,16.10
2015,05,27,09,24,16.10
2015,05,27,09,25,16.10
2015,05,27,09,26,16.10
2015,05,27,09,27,16.10
2015,05,27,09,28,16.20
2015,05,27,09,29,16.30
2015,05,27,09,30,16.30
2015,05,27,09,31,16.30
2015,05,27,09,32,16.30
2015,05,27,09,33,16.30
2015,05,27,09,34,16.20
2015,05,27,09,35,16.20
2015,05,27,09,36,16.10
2015,05,27,09,37,16.00
2015,05,27,09,38,16.00
2015,05,27,09,39,16.10
2015,05,27,09,40,16.10
2015,05,27,09,41,16.10
2015,05,27,09,42,16.20
2015,05,27,09,43,16.20
2015,05,27,09,44,16.30
2015,05,27,09,45,16.40
2015,05,27,09,46,16.50
2015,05,27,09,47,16.60
2015,05,27,09,48,16.60
2015,05,27,09,49,16.60
2015,05,27,09,50,16.70
2015,05,27,09,51,16.70
2015,05,27,09,52,16.80
2015,05,27,09,53,16.80
2015,05,27,09,54,16.70
2015,05,27,09,55,16.70
2015,05,27,09,56,16.70
2015,05,27,09,57,16.70
2015,05,27,09,58,16.70
2015,05,27,09,59,16.80
2015,05,27,10,00,16.80
2015,05,27,10,01,16.90
2015,05,27,10,02,16.90
2015,05,27,10,03,16.90
2015,05,27,10,04,16.90
2015,05,27,10,05,16.90
2015,05,27,10,06,16.90
2015,05,27,10,07,17.00
2015,05,27,10,08,17.10
2015,05,27,10,09,17.20
2015,05,27,10,10,17.20
2015,05,27,10,11,17.30
2015,05,27,10,12,17.30
2015,05,27,10,13,17.40
2015,05,27,10,14,17.40
2015,05,27,10,15,17.50
2015,05,27,10,16,17.60
2015,05,27,10,17,17.60
2015,05,27,10,18,17.60
2015,05,27,10,19,17.60
2015,05,27,10,20,17.60
2015,05,27,10,21,17.50
2015,05,27,10,22,17.50
2015,05,27,10,23,17.40
2015,05,27,10,24,17.40
2015,05,27,10,25,17.40
2015,05,27,10,26,17.30
2015,05,27,10,27,17.40
2015,05,27,10,28,17.50
2015,05,27,10,29,17.60
2015,05,27,10,30,17.70
2015,05,27,10,31,17.70
2015,05,27,10,32,17.70
2015,05,27,10,33,17.70
2015,05,27,10,34,17.80
2015,05,27,10,35,17.90
2015,05,27,10,36,18.00
2015,05,27,10,37,18.10
2015,05,27,10,38,18.10
2015,05,27,10,39,18.10
2015,05,27,10,40,18.10
2015,05,27,10,41,18.10
2015,05,27,10,42,18.10
2015,05,27,10,43,18.20
2015,05,27,10,44,18.20
2015,05,27,10,45,18.30
2015,05,27,10,46,18.30
2015,05,27,10,47,18.30
2015,05,27,10,48,18.20
2015,05,27,10,49,18.20
2015,05,27,10,50,18.10
2015,05,27,10,51,18.00
2015,05,27,10,52,17.90
2015,05,27,10,53,17.90
2015,05,27,10,54,17.90
2015,05,27,10,55,18.00
2015,05,27,10,56,18.10
2015,05,27,10,57,18.20
2015,05,27,10,58,18.30
2015,05,27,10,59,18.40
2015,05,27,11,00,18.50
2015,05,27,11,01,18.60
2015,05,27,11,02,18.60
2015,05,27,11,03,18.60
2015,05,27,11,04,18.70
2015,05,27,11,05,18.70
2015,05,27,11,06,18.70
2015,05,27,11,07,18.70
2015,05,27,11,08,18.80
2015,05,27,11,09,18.80
2015,05,27,11,10,18.90
2015,05,27,11,11,18.90
2015,05,27,11,12,18.90
2015,05,27,11,13,18.90
2015,05,27,11,14,18.90
2015,05,27,11,15,18.80
2015,05,27,11,16,18.80
2015,05,27,11,17,18.80
2015,05,27,11,18,18.80
2015,05,27,11,19,18.80
2015,05,27,11,20,18.80
2015,05,27,11,21,18.90
2015,05,27,11,22,19.00
2015,05,27,11,23,19.10
2015,05,27,11,24,19.20
2015,05,27,11,25,19.20
2015,05,27,11,26,19.30
2015,05,27,11,27,19.30
2015,05,27,11,28,19.30
2015,05,27,11,29,19.30
2015,05,27,11,30,19.30
2015,05,27,11,31,19.20
2015,05,27,11,32,19.20
2015,05,27,11,33,19.20
2015,05,27,11,34,19.30
2015,05,27,11,35,19.40
2015,05,27,11,36,19.50
2015,05,27,11,37,19.60
2015,05,27,11,38,19.60
2015,05,27,11,39,19.50
2015,05,27,11,40,19.50
2015,05,27,11,41,19.40
2015,05,27,11,42,19.30
2015,05,27,11,43,19.30
2015,05,27,11,44,19.30
2015,05,27,11,45,19.30
2015,05,27,11,46,19.40
2015,05,27,11,47,19.40
2015,05,27,11,48,19.40
2015,05,27,11,49,19.50
2015,05,27,11,50,19.60
2015,05,27,11,51,19.60
2015,05,27,11,52,19.70
2015,05,27,11,53,19.70
2015,05,27,11,54,19.70
2015,05,27,11,55,19.70
2015,05,27,11,56,19.70
2015,05,27,11,57,19.80
2015,05,27,11,58,19.90
2015,05,27,11,59,19.80
2015,05,27,12,00,19.80
2015,05,27,12,01,19.80
2015,05,27,12,02,19.80
2015,05,27,12,03,19.80
2015,05,27,12,04,19.90
2015,05,27,12,05,19.90
2015,05,27,12,06,20.00
2015,05,27,12,07,20.00
2015,05,27,12,08,19.90
2015,05,27,12,09,19.90
2015,05,27,12,10,19.80
2015,05,27,12,11,19.80
2015,05,27,12,12,19.90
2015,05,27,12,13,19.90
2015,05,27,12,14,19.80
2015,05,27,12,15,19.80
2015,05,27,12,16,19.80
2015,05,27,12,17,19.80
2015,05,27,12,18,19.80
2015,05,27,12,19,19.90
2015,05,27,12,20,19.90
2015,05,27,12,21,20.00
2015,05,27,12,22,20.00
2015,05,27,12,23,20.10
2015,05,27,12,24,20.10
2015,05,27,12,25,20.20
2015,05,27,12,26,20.10
2015,05,27,12,27,20.00
2015,05,27,12,28,19.90
2015,05,27,12,29,19.90
2015,05,27,12,30,20.00
2015,05,27,12,31,20.00
2015,05,27,12,32,20.10
2015,05,27,12,33,20.10
2015,05,27,12,34,20.10
2015,05,27,12,35,20.10
2015,05,27,12,36,20.10
2015,05,27,12,37,20.10
2015,05,27,12,38,20.20
2015,05,27,12,39,20.30
2015,05,27,12,40,20.40
2015,05,27,12,41,20.50
2015,05,27,12,42,20.50
2015,05,27,12,43,20.60
2015,05,27,12,44,20.60
2015,05,27,12,45,20.60
2015,05,27,12,46,20.50
2015,05,27,12,47,20.50
2015,05,27,12,48,20.40
2015,05,27,12,49,20.40
2015,05,27,12,50,20.30
2015,05,27,12,51,20.30
2015,05,27,12,52,20.30
2015,05,27,12,53,20.30
2015,05,27,12,54,20.30
2015,05,27,12,55,20.30
2015,05,27,12,56,20.30
2015,05,27,12,57,20.30
2015,05,27,12,58,20.30
2015,05,27,12,59,20.30
2015,05,27,13,00,20.40
2015,05,27,13,01,20.30
2015,05,27,13,02,20.30
2015,05,27,13,03,20.30
2015,05,27,13,04,20.30
2015,05,27,13,05,20.40
2015,05,27,13,06,20.50
2015,05,27,13,07,20.50
2015,05,27,13,08,20.60
2015,05,27,13,09,20.70
2015,05,27,13,10,20.70
2015,05,27,13,11,20.70
2015,05,27,13,12,20.70
2015,05,27,13,13,20.80
2015,05,27,13,14,20.80
2015,05,27,13,15,21.00
2015,05,27,13,16,21.00
2015,05,27,13,17,20.90
2015,05,27,13,18,20.90
2015,05,27,13,19,20.90
2015,05,27,13,20,20.80
2015,05,27,13,21,20.80
2015,05,27,13,22,20.80
2015,05,27,13,23,20.80
2015,05,27,13,24,20.80
2015,05,27,13,25,20.80
2015,05,27,13,26,20.80
2015,05,27,13,27,20.80
2015,05,27,13,28,20.90
2015,05,27,13,29,20.90
2015,05,27,13,30,20.90
2015,05,27,13,31,20.90
2015,05,27,13,32,21.00
2015,05,27,13,33,21.00
2015,05,27,13,34,21.10
2015,05,27,13,35,21.20
2015,05,27,13,36,21.20
2015,05,27,13,37,21.20
2015,05,27,13,38,21.20
2015,05,27,13,39,21.20
2015,05,27,13,40,21.20
2015,05,27,13,41,21.20
2015,05,27,13,42,21.20
2015,05,27,13,43,21.20
2015,05,27,13,44,21.20
2015,05,27,13,45,21.20
2015,05,27,13,46,21.30
2015,05,27,13,47,21.30
2015,05,27,13,48,21.30
2015,05,27,13,49,21.30
2015,05,27,13,50,21.30
2015,05,27,13,51,21.30
2015,05,27,13,52,21.40
2015,05,27,13,53,21.40
2015,05,27,13,54,21.40
2015,05,27,13,55,21.50
2015,05,27,13,56,21.60
2015,05,27,13,57,21.60
2015,05,27,13,58,21.70
2015,05,27,13,59,21.80
2015,05,27,14,00,21.80
2015,05,27,14,01,21.80
2015,05,27,14,02,21.80
2015,05,27,14,03,21.80
2015,05,27,14,04,21.90
2015,05,27,14,05,21.80
2015,05,27,14,06,21.80
2015,05,27,14,07,21.80
2015,05,27,14,08,21.80
2015,05,27,14,09,21.90
2015,05,27,14,10,21.90
2015,05,27,14,11,21.90
2015,05,27,14,12,21.80
2015,05,27,14,13,21.70
2015,05,27,14,14,21.70
2015,05,27,14,15,21.60
2015,05,27,14,16,21.60
2015,05,27,14,17,21.60
2015,05,27,14,18,21.70
2015,05,27,14,19,21.70
2015,05,27,14,20,21.70
2015,05,27,14,21,21.80
2015,05,27,14,22,21.90
2015,05,27,14,23,21.90
2015,05,27,14,24,22.00
2015,05,27,14,25,22.10
2015,05,27,14,26,22.20
2015,05,27,14,27,22.30
2015,05,27,14,28,22.30
2015,05,27,14,29,22.30
2015,05,27,14,30,22.30
2015,05,27,14,31,22.30
2015,05,27,14,32,22.30
2015,05,27,14,33,22.30
2015,05,27,14,34,22.30
2015,05,27,14,35,22.30
2015,05,27,14,36,22.30
2015,05,27,14,37,22.30
2015,05,27,14,38,22.20
2015,05,27,14,39,22.20
2015,05,27,14,40,22.20
2015,05,27,14,41,22.20
2015,05,27,14,42,22.20
2015,05,27,14,43,22.10
2015,05,27,14,44,22.00
2015,05,27,14,45,21.90
2015,05,27,14,46,21.80
2015,05,27,14,47,21.80
2015,05,27,14,48,21.90
2015,05,27,14,49,22.00
2015,05,27,14,50,22.00
2015,05,27,14,51,22.00
2015,05,27,14,52,22.00
2015,05,27,14,53,21.90
2015,05,27,14,54,21.90
2015,05,27,14,55,21.80
2015,05,27,14,56,21.80
2015,05,27,14,57,21.70
2015,05,27,14,58,21.70
2015,05,27,14,59,21.80
2015,05,27,15,00,21.80
2015,05,27,15,01,21.80
2015,05,27,15,02,21.90
2015,05,27,15,03,21.90
2015,05,27,15,04,21.90
2015,05,27,15,05,21.90
2015,05,27,15,06,21.90
2015,05,27,15,07,21.90
2015,05,27,15,08,22.00
2015,05,27,15,09,22.10
2015,05,27,15,10,22.10
2015,05,27,15,11,22.20
2015,05,27,15,12,22.20
2015,05,27,15,13,22.20
2015,05,27,15,14,22.20
2015,05,27,15,15,22.20
2015,05,27,15,16,22.10
2015,05,27,15,17,22.10
2015,05,27,15,18,22.10
2015,05,27,15,19,22.10
2015,05,27,15,20,22.20
2015,05,27,15,21,22.30
2015,05,27,15,22,22.30
2015,05,27,15,23,22.30
2015,05,27,15,24,22.30
2015,05,27,15,25,22.30
2015,05,27,15,26,22.30
2015,05,27,15,27,22.20
2015,05,27,15,28,22.20
2015,05,27,15,29,22.10
2015,05,27,15,30,22.10
2015,05,27,15,31,22.10
2015,05,27,15,32,22.10
2015,05,27,15,33,22.10
2015,05,27,15,34,22.20
2015,05,27,15,35,22.20
2015,05,27,15,36,22.20
2015,05,27,15,37,22.20
2015,05,27,15,38,22.30
2015,05,27,15,39,22.30
2015,05,27,15,40,22.30
2015,05,27,15,41,22.30
2015,05,27,15,42,22.30
2015,05,27,15,43,22.30
2015,05,27,15,44,22.30
2015,05,27,15,45,22.30
2015,05,27,15,46,22.20
2015,05,27,15,47,22.20
2015,05,27,15,48,22.20
2015,05,27,15,49,22.20
2015,05,27,15,50,22.20
2015,05,27,15,51,22.30
2015,05,27,15,52,22.40
2015,05,27,15,53,22.40
2015,05,27,15,54,22.40
2015,05,27,15,55,22.50
2015,05,27,15,56,22.50
2015,05,27,15,57,22.50
2015,05,27,15,58,22.60
2015,05,27,15,59,22.60
2015,05,27,16,00,22.60
2015,05,27,16,01,22.70
2015,05,27,16,02,22.80
2015,05,27,16,03,22.80
2015,05,27,16,04,22.80
2015,05,27,16,05,22.80
2015,05,27,16,06,22.80
2015,05,27,16,07,22.90
2015,05,27,16,08,22.90
2015,05,27,16,09,22.80
2015,05,27,16,10,22.80
2015,05,27,16,11,22.80
2015,05,27,16,12,22.80
2015,05,27,16,13,22.70
2015,05,27,16,14,22.60
2015,05,27,16,15,22.50
2015,05,27,16,16,22.40
2015,05,27,16,17,22.40
2015,05,27,16,18,22.40
2015,05,27,16,19,22.40
2015,05,27,16,20,22.50
2015,05,27,16,21,22.60
2015,05,27,16,22,22.70
2015,05,27,16,23,22.70
2015,05,27,16,24,22.70
2015,05,27,16,25,22.70
2015,05,27,16,26,22.80
2015,05,27,16,27,22.80
2015,05,27,16,28,22.70
2015,05,27,16,29,22.70
2015,05,27,16,30,22.70
2015,05,27,16,31,22.60
2015,05,27,16,32,22.60
2015,05,27,16,33,22.70
2015,05,27,16,34,22.70
2015,05,27,16,35,22.60
2015,05,27,16,36,22.60
2015,05,27,16,37,22.60
2015,05,27,16,38,22.60
2015,05,27,16,39,22.60
2015,05,27,16,40,22.60
2015,05,27,16,41,22.60
2015,05,27,16,42,22.60
2015,05,27,16,43,22.60
2015,05,27,16,44,22.60
2015,05,27,16,45,22.60
2015,05,27,16,46,22.60
2015,05,27,16,47,22.70
2015,05,27,16,48,22.80
2015,05,27,16,49,22.80
2015,05,27,16,50,22.90
2015,05,27,16,51,23.00
2015,05,27,16,52,23.00
2015,05,27,16,53,23.00
2015,05,27,16,54,23.00
2015,05,27,16,55,23.10
2015,05,27,16,56,23.10
2015,05,27,16,57,23.00
2015,05,27,16,58,23.00
2015,05,27,16,59,23.00
2015,05,27,17,00,23.00
2015,05,27,17,01,23.10
2015,05,27,17,02,23.10
2015,05,27,17,03,23.10
2015,05,27,17,04,23.10
2015,05,27,17,05,23.20
2015,05,27,17,06,23.20
2015,05,27,17,07,23.20
2015,05,27,17,08,23.20
2015,05,27,17,09,23.20
2015,05,27,17,10,23.20
2015,05,27,17,11,23.20
2015,05,27,17,12,23.20
2015,05,27,17,13,23.30
2015,05,27,17,14,23.30
2015,05,27,17,15,23.30
2015,05,27,17,16,23.30
2015,05,27,17,17,23.30
2015,05,27,17,18,23.30
2015,05,27,17,19,23.30